This is the latest recevied weather packets stored in our database for station/object DF9PM-13. If no packets are shown the sender has not sent any weather packets the latest 10 day(s).
| Time | Temp. | Humidity | Pressure | Rain* | Wind** | Luminosity | Snow |
|---|---|---|---|---|---|---|---|
| 1777755309 | 20° C | 51% | 1015.3 hPa | - | - | - | - |
| 1777755009 | 20° C | 52% | 1015.3 hPa | - | - | - | - |
| 1777754709 | 20° C | 52% | 1015.3 hPa | - | - | - | - |
| 1777754408 | 20° C | 51% | 1015.3 hPa | - | - | - | - |
| 1777754108 | 20.56° C | 48% | 1015.3 hPa | - | - | - | - |
| 1777753808 | 20.56° C | 49% | 1015.4 hPa | - | - | - | - |
| 1777753508 | 20.56° C | 48% | 1015.4 hPa | - | - | - | - |
| 1777753208 | 20.56° C | 48% | 1015.3 hPa | - | - | - | - |
| 1777752908 | 21.11° C | 48% | 1015.4 hPa | - | - | - | - |
| 1777752608 | 21.11° C | 46% | 1015.3 hPa | - | - | - | - |
| 1777752308 | 21.11° C | 46% | 1015.4 hPa | - | - | - | - |
| 1777752008 | 21.11° C | 47% | 1015.4 hPa | - | - | - | - |
| 1777751708 | 21.11° C | 45% | 1015.4 hPa | - | - | - | - |
| 1777751408 | 21.11° C | 44% | 1015.3 hPa | - | - | - | - |
| 1777751108 | 21.11° C | 45% | 1015.3 hPa | - | - | - | - |
| 1777750808 | 21.11° C | 44% | 1015.3 hPa | - | - | - | - |
| 1777750508 | 21.67° C | 43% | 1015.3 hPa | - | - | - | - |
| 1777750208 | 21.67° C | 42% | 1015.3 hPa | - | - | - | - |
| 1777749908 | 21.67° C | 42% | 1015.3 hPa | - | - | - | - |
| 1777749608 | 22.22° C | 44% | 1015.3 hPa | - | - | - | - |
| 1777749307 | 22.22° C | 42% | 1015.2 hPa | - | - | - | - |
| 1777749007 | 22.22° C | 42% | 1015.2 hPa | - | - | - | - |
| 1777748707 | 22.78° C | 41% | 1015.1 hPa | - | - | - | - |
| 1777748407 | 22.22° C | 42% | 1015.1 hPa | - | - | - | - |
| 1777748107 | 22.78° C | 40% | 1015.1 hPa | - | - | - | - |
* Rain since midnight (hover to see other rain measurements)
** Current wind speed in m/s (hover to see current wind gust speed)